Weather History for KP60 - August, 2012

Change the Weather History Date:

Wednesday, August 8, 2012

  Actual Average Record
Temperature  
Mean Temperature 59 °F 57 °F  
Max Temperature 82 °F 73 °F 82 °F (2012)
Min Temperature 39 °F 40 °F 31 °F (2004)
Degree Days  
Heating Degree Days 6 8  
Month to date heating degree days 64  
Since 1 June heating degree days 840  
Since 1 July heating degree days 347  
Cooling Degree Days 0 0  
Month to date cooling degree days 0  
Year to date cooling degree days 0  
Since 1 June cooling degree days 0  
Growing Degree Days 9 (Base 50)    
Moisture  
Dew Point 40 °F    
Average Humidity 50    
Maximum Humidity 83    
Minimum Humidity 22    
Precipitation  
Precipitation 0.00 in 0.05 in 0.54 in (2005)
Month to date precipitation 0.34  
Year to date precipitation 12.89  
Sea Level Pressure  
Sea Level Pressure 30.24 in    
Wind  
Wind Speed 1 mph (ESE)    
Max Wind Speed 8 mph    
Max Gust Speed -    
T = Trace of Precipitation, MM = Missing Value Source: NWS Daily Summary

Daily Weather History Graph

Daily Weather History Graph

Search for Another Location

Airport or City:

Trip Planner

Search our weather history database for the weather conditions in past years. The results will help you decide how hot, cold, wet, or windy it might be!

Date:

Astronomy

Aug. 08, 2012 Rise Set
Actual Time 6:16 AM MDT 8:36 PM MDT
Civil Twilight 5:44 AM MDT 9:09 PM MDT
Nautical Twilight 5:04 AM MDT 9:49 PM MDT
Astronomical Twilight 4:18 AM MDT 10:33 PM MDT
Moon 11:32 PM MDT (8/8) 1:25 PM MDT (8/8)
Length of Visible Light 15h 24m
Length of Day
14h 19m
Waning Gibbous, 60% of the Moon is Illuminated
Aug 8
Waning Gibbous
Aug 9
Last Quarter
Aug 17
New
Aug 24
First Quarter
Aug 31
Full

Hourly Weather History & Observations

Time (MDT) Temp. Dew Point Humidity Pressure Visibility Wind Dir Wind Speed Gust Speed Precip Events Conditions
12:56 AM 46.0 °F 35.1 °F 66% 30.27 in - Calm Calm - N/A   Unknown
1:56 AM 45.0 °F 35.1 °F 68% 30.28 in - Calm Calm - N/A   Unknown
2:56 AM 43.0 °F 36.0 °F 76% 30.27 in - Calm Calm - N/A   Unknown
3:56 AM 43.0 °F 36.0 °F 76% 30.27 in - Calm Calm - N/A   Unknown
4:56 AM 41.0 °F 36.0 °F 82% 30.26 in - Calm Calm - N/A   Unknown
5:56 AM 39.9 °F 35.1 °F 83% 30.27 in - Calm Calm - N/A   Unknown
6:56 AM 39.9 °F 35.1 °F 83% 30.30 in - Calm Calm - N/A   Unknown
7:56 AM 46.9 °F 39.0 °F 74% 30.30 in - Calm Calm - N/A   Unknown
8:56 AM 57.9 °F 46.9 °F 67% 30.30 in - Calm Calm - N/A   Unknown
9:56 AM 61.0 °F 46.9 °F 60% 30.30 in - ESE 3.5 mph - N/A   Unknown
10:56 AM 66.0 °F 39.0 °F 37% 30.29 in - ESE 3.5 mph - N/A   Unknown
11:56 AM 69.1 °F 42.1 °F 38% 30.28 in - East 3.5 mph - N/A   Unknown
12:56 PM 71.1 °F 37.9 °F 30% 30.26 in - ESE 4.6 mph - N/A   Unknown
1:56 PM 75.0 °F 50.0 °F 41% 30.24 in - Variable 4.6 mph - N/A   Unknown
2:56 PM 78.1 °F 43.0 °F 29% 30.21 in - Variable 5.8 mph - N/A   Unknown
3:56 PM 78.1 °F 43.0 °F 29% 30.20 in - Variable 4.6 mph - N/A   Unknown
4:56 PM 79.0 °F 37.0 °F 22% 30.19 in - Calm Calm - N/A   Unknown
5:56 PM 77.0 °F 39.9 °F 26% 30.19 in - Variable 3.5 mph - N/A   Unknown
6:56 PM 77.0 °F 35.1 °F 22% 30.18 in - Calm Calm - N/A   Unknown
7:56 PM 71.1 °F 43.0 °F 36% 30.18 in - Calm Calm - N/A   Unknown
8:56 PM 64.0 °F 44.1 °F 48% 30.17 in - Calm Calm - N/A   Unknown
9:56 PM 62.1 °F 41.0 °F 46% 30.17 in - Calm Calm - N/A   Unknown
10:56 PM 64.9 °F 37.9 °F 37% 30.17 in - West 8.1 mph - N/A   Unknown
11:56 PM 68.0 °F 36.0 °F 31% 30.15 in - Variable 4.6 mph - N/A   Unknown